Regional Weather Roundup
Issued by NWS

Home | Current Version | Previous Version | Text Only | Print | Product List | Glossary Off
Versions: 1 2 3 4 5 6 7 8 9 10 11 12 13 14 15 16 17 18 19 20 21 22 23 24 25 26 27 28 29 30 31 32 33 34 35 36 37 38 39 40 41 42 43 44 45 46 47 48 49 50

000
ASUS43 KMKX 261721
RWRWI

WISCONSIN REGIONAL WEATHER ROUNDUP
NATIONAL WEATHER SERVICE MILWAUKEE/SULLIVAN WI
1100 AM CST SUN FEB 26 2017

NOTE: "FAIR" INDICATES FEW OR NO CLOUDS BELOW 12,000 FEET WITH NO
SIGNIFICANT WEATHER AND/OR OBSTRUCTIONS TO VISIBILITY.

WIZ001-002-006>008-014>016-023>028-261800-
NORTHWEST WISCONSIN

CITY           SKY/WX    TMP DP  RH WIND       PRES   REMARKS
SUPERIOR ARPT  CLOUDY    23  16  75 N13G24    29.72R WCI  11
ASHLAND        SNOW      28  24  85 SW13      29.68R VSB 1/2 WCI  17
HAYWARD        CLOUDY    28  21  75 SW9G18    29.69R WCI  19
SIREN          CLOUDY    32  22  66 W14G21    29.72S WCI  22
CUMBERLAND     PTSUNNY   30  21  69 SW14      29.72R WCI  20
RICE LAKE      SUNNY     31  22  69 CALM      29.74S
CHETEK         PTSUNNY   31  22  68 SW9       29.74S WCI  23
LADYSMITH      CLOUDY    30  22  73 SW12      29.73S WCI  20
EAU CLAIRE     CLOUDY    28  20  71 SW9       29.77S WCI  19
MENOMONIE      CLOUDY    31  21  66 S8        29.77S WCI  24
NEW RICHMOND   MOSUNNY   34  21  59 W12G20    29.75R WCI  26
OSCEOLA        CLOUDY    32  23  70 W14       29.78S WCI  22
$$

WIZ003>005-009-010-017-018-261800-
NORTH CENTRAL WISCONSIN

CITY           SKY/WX    TMP DP  RH WIND       PRES   REMARKS
MANITOWISH WTR LGT SNOW  25  22  86 SW9       29.64F WCI  16
ARBOR VITAE    CLOUDY    27  21  79 SW9         N/A  WCI  17
WOODRUFF       CLOUDY    27  21  79 SW9         N/A  WCI  17
RHINELANDER    CLOUDY    27  19  72 SW13G21   29.69S WCI  16
EAGLE RIVER    CLOUDY    25  19  76 SW10G17   29.65F HAZE    WCI  15
LAND O LAKES   CLOUDY    26  20  80 SW6G16    29.66F HAZE    WCI  19
PHILLIPS       CLOUDY    27  20  77 SW14      29.68S WCI  15
TOMAHAWK       PTSUNNY   29  20  68 SW5       29.70S WCI  24
MEDFORD        CLOUDY    27  18  69 SW9       29.72S WCI  18
MERRILL        NOT AVBL
$$

WIZ029-030-035-036-043>047-261800-
CENTRAL WISCONSIN

CITY           SKY/WX    TMP DP  RH WIND       PRES   REMARKS
WAUSAU         MOSUNNY   29  18  63 SW13      29.73S WCI  19
MOSINEE        MOSUNNY   30  21  69 SW15G21   29.76R WCI  19
MARSHFIELD     SUNNY     30  19  63 SW14      29.74R WCI  19
STEVENS POINT  MOSUNNY   31  19  60 SW10      29.77R WCI  22
WAUPACA        SUNNY     36  21  54 SW13      29.79S WCI  28
WAUTOMA        SUNNY     35  21  56 SW14      29.80S WCI  26
WISC RAPIDS    SUNNY     33  21  61 SW15      29.79R WCI  23
CAMP DOUGLAS   MOSUNNY   36  21  55 W18       29.80R WCI  25
$$

WIZ011>013-019>022-031-037>040-048>050-261800-
NORTHEAST WISCONSIN

CITY           SKY/WX    TMP DP  RH WIND       PRES   REMARKS
ANTIGO         MOSUNNY   28  19  69 SW18      29.72S WCI  15
SHAWANO        MOSUNNY   35  21  57 SW10G17   29.78S WCI  27
OCONTO         CLOUDY    32  19  60 SW15G28   29.79S WCI  21
STURGEON BAY   PTSUNNY   32  22  66 SW18G26   29.78F WCI  20
GREEN BAY      SUNNY     32  24  72 SW15      29.80S WCI  22
MANITOWOC      CLOUDY    34  21  59 SW14      29.83F WCI  25
APPLETON       MOSUNNY   32  19  59 SW18      29.78S WCI  20
CLINTONVILLE   MOSUNNY   32  21  64 SW13      29.78S WCI  22
OSHKOSH        SUNNY     32  21  64 SW17G25   29.80F WCI  21
$$

WIZ032>034-041-042-053>061-261800-
SOUTHWEST WISCONSIN

CITY           SKY/WX    TMP DP  RH WIND       PRES   REMARKS
LA CROSSE      SUNNY     38  22  52 CALM      29.83R
SPARTA         SUNNY     36  23  59 W10G17    29.82S WCI  28
VIROQUA        SUNNY     34  23  64 SW14G22   29.82R WCI  24
BOSCOBEL       SUNNY     37  23  56 SW12      29.88R WCI  29
PRAIRIE DU CHI SUNNY     35  24  64 SW9G20    29.88R WCI  28
PLATTEVILLE    SUNNY     36  27  72 SW21G26   29.89R WCI  24
$$

WIZ056-057-062-063-064-067-068-261800-
SOUTH CENTRAL WISCONSIN

CITY           SKY/WX    TMP DP  RH WIND       PRES   REMARKS
REEDSBURG      SUNNY     35  23  61 SW13      29.84R WCI  26
BARABOO/DELLS  SUNNY     34  22  61 W14G20    29.82R WCI  24
LONE ROCK      SUNNY     35  23  61 SW15      29.87R WCI  25
MINERAL POINT  SUNNY     36  28  75 SW8       29.86R WCI  29
MADISON        MOSUNNY   35  23  61 SW10G18   29.85S WCI  27
MIDDLETON      SUNNY     36  26  66 W16G25    29.86R WCI  26
WATERTOWN      SUNNY     34  23  63 SW17G25   29.86R WCI  24
MONROE         SUNNY     36  25  64 SW25G33   29.88R WCI  23
JANESVILLE     MOSUNNY   37  25  60 SW21G28   29.89S WCI  27
$$

WIZ051-052-058>065-066-070>072-261800-
SOUTHEAST WISCONSIN

CITY           SKY/WX    TMP DP  RH WIND       PRES   REMARKS
MILWAUKEE      MOSUNNY   38  20  48 SW26G37   29.88F WCI  26
WAUKESHA       SUNNY     34  18  51 SW15G35   29.88F WCI  24
MILWAUKEE/TIMM SUNNY     36  18  48 SW21G31   29.88F WCI  24
RACINE         MOSUNNY   38  19  46 SW20G35   29.90F WCI  28
KENOSHA        MOSUNNY   38  20  48 SW25G37   29.91S WCI  27
FOND DU LAC    LGT RAIN  34  20  56 SW15G28   29.82S WCI  24
SHEBOYGAN      CLOUDY    33  21  61 SW15      29.83F WCI  23
WEST BEND      PTSUNNY   34  23  64 SW20      29.84S WCI  22
JUNEAU         MOSUNNY   32  23  68 SW13      29.86S WCI  22
$$

LSZ147-162-261800-
LAKE SUPERIOR

STATION/POSITION TIME  TEMP    WIND        PRES    WAVE
                       AIR SEA DIR/SP/G            HT/PER
                 (UTC) (F)     (DEG/KT/KT) (MB)    (FT/S)
DEVILS ISLAND    1700   28     230/ 21/ 23 1004.7F
PORT WING        1640   28     220/  9/ 14 1005.1R
SAXON HARBOR     1630   29     200/  9/ 16 1004.7F
$$

LMZ867-665-643>646-261800-
LAKE MICHIGAN

STATION/POSITION TIME  TEMP    WIND        PRES    WAVE
                       AIR SEA DIR/SP/G            HT/PER
                 (UTC) (F)     (DEG/KT/KT) (MB)    (FT/S)
NORTHPORT PIER   1521   29      CALM  /  2 1009.1F
SISTER BAY       1635   34        CALM       N/A
ALGOMA LAKESHORE 1641          230/ 22/ 26   N/A
KEWAUNEE LAKESHO 1654   31     210/ 15/ 19 1009.4F
SHEBOYGAN LAKESH 1700   34     220/ 16/ 23 1011.1F
PORT WASHINGTON  1640   38     210/ 13/ 27 1012.2F
MILWAUKEE LAKESH 1700   36     230/ 20/ 24   N/A
KENOSHA   LAKESH 1700   38     230/ 17/ 28 1013.5
$$

TC  - TEMPERATURE IN CELSIUS
VSB - VISIBILITY IN STATUTE MILES
WCI - WIND CHILL INDEX
HX  - HEAT INDEX





USA.gov is the U.S. government's official web portal to all federal, state and local government web resources and services.